Time,TemperatureF,DewpointF,PressureIn,WindDirection,WindDirectionDegrees,WindSpeedMPH,WindSpeedGustMPH,Humidity,HourlyPrecipIn,Conditions,Clouds,dailyrainin,SoftwareType,DateUTC
2013-08-11 00:01:00,65.4,64.2,30.01,East,80,4.0,4.0,96,0.11,,,0.00,VWS V12.08,2013-08-11 05:01:00,
2013-08-11 00:06:00,65.4,63.9,30.01,ESE,111,2.0,5.0,95,0.11,,,0.01,VWS V12.08,2013-08-11 05:06:00,
2013-08-11 00:11:00,65.4,64.2,30.01,East,89,1.0,5.0,96,0.12,,,0.02,VWS V12.08,2013-08-11 05:11:00,
2013-08-11 00:16:00,65.3,63.8,30.00,East,88,2.0,5.0,95,0.13,,,0.03,VWS V12.08,2013-08-11 05:16:00,
2013-08-11 00:21:00,65.1,63.6,30.00,SE,146,3.0,6.0,95,0.14,,,0.04,VWS V12.08,2013-08-11 05:21:00,
2013-08-11 00:26:00,65.0,63.8,30.01,South,177,0.0,6.0,96,0.15,,,0.05,VWS V12.08,2013-08-11 05:26:00,
2013-08-11 00:32:00,65.1,63.9,30.01,NNW,331,3.0,7.0,96,0.12,,,0.06,VWS V12.08,2013-08-11 05:32:00,
2013-08-11 00:37:00,65.0,63.8,30.02,NE,38,3.0,10.0,96,0.12,,,0.06,VWS V12.08,2013-08-11 05:37:00,
2013-08-11 00:42:00,65.0,63.8,30.02,ENE,62,2.0,10.0,96,0.13,,,0.07,VWS V12.08,2013-08-11 05:42:00,
2013-08-11 00:47:00,65.0,63.8,30.02,East,96,0.0,10.0,96,0.13,,,0.08,VWS V12.08,2013-08-11 05:47:00,
2013-08-11 00:52:00,65.0,63.8,30.03,North,351,1.0,10.0,96,0.14,,,0.08,VWS V12.08,2013-08-11 05:52:00,
2013-08-11 00:58:00,65.0,63.8,30.04,NNW,346,1.0,10.0,96,0.15,,,0.09,VWS V12.08,2013-08-11 05:58:00,
2013-08-11 01:03:00,65.0,64.1,30.04,SW,219,0.0,1.0,97,0.09,,,0.09,VWS V12.08,2013-08-11 06:03:00,
2013-08-11 01:09:00,65.1,64.2,30.03,SW,227,1.0,3.0,97,0.10,,,0.10,VWS V12.08,2013-08-11 06:09:00,
2013-08-11 01:14:00,65.2,64.3,30.03,South,173,2.0,7.0,97,0.10,,,0.10,VWS V12.08,2013-08-11 06:14:00,
2013-08-11 01:19:00,65.3,64.1,30.04,SW,222,4.0,10.0,96,0.10,,,0.10,VWS V12.08,2013-08-11 06:19:00,
2013-08-11 01:25:00,65.3,63.8,30.05,West,276,4.0,11.0,95,0.10,,,0.10,VWS V12.08,2013-08-11 06:25:00,
2013-08-11 01:30:00,65.2,63.7,30.05,WSW,250,7.0,11.0,95,0.10,,,0.10,VWS V12.08,2013-08-11 06:30:00,
2013-08-11 01:35:00,65.0,63.2,30.03,SW,223,5.0,10.0,94,0.05,,,0.11,VWS V12.08,2013-08-11 06:35:00,
2013-08-11 01:41:00,64.6,62.8,30.01,SW,229,8.0,14.0,94,0.05,,,0.11,VWS V12.08,2013-08-11 06:41:00,
2013-08-11 01:46:00,64.4,62.6,30.01,WSW,252,3.0,14.0,94,0.05,,,0.11,VWS V12.08,2013-08-11 06:46:00,
2013-08-11 01:51:00,64.3,62.8,30.02,SW,218,3.0,14.0,95,0.05,,,0.11,VWS V12.08,2013-08-11 06:51:00,
2013-08-11 01:57:00,64.2,62.7,30.02,WSW,246,1.0,14.0,95,0.05,,,0.11,VWS V12.08,2013-08-11 06:57:00,
2013-08-11 02:02:00,64.2,62.7,30.02,SW,221,4.0,4.0,95,0.03,,,0.12,VWS V12.08,2013-08-11 07:02:00,
2013-08-11 02:07:00,64.2,62.7,30.03,SSW,197,2.0,6.0,95,0.03,,,0.12,VWS V12.08,2013-08-11 07:07:00,
2013-08-11 02:12:00,64.1,62.6,30.01,South,171,2.0,6.0,95,0.03,,,0.12,VWS V12.08,2013-08-11 07:12:00,
2013-08-11 02:18:00,64.1,62.6,30.01,SE,134,2.0,6.0,95,0.03,,,0.12,VWS V12.08,2013-08-11 07:18:00,
2013-08-11 02:23:00,64.0,62.5,30.01,West,267,3.0,6.0,95,0.03,,,0.12,VWS V12.08,2013-08-11 07:23:00,
2013-08-11 02:28:00,64.1,62.6,30.00,South,179,3.0,6.0,95,0.03,,,0.12,VWS V12.08,2013-08-11 07:28:00,
2013-08-11 02:33:00,64.0,62.5,30.01,SSW,198,3.0,5.0,95,0.02,,,0.12,VWS V12.08,2013-08-11 07:33:00,
2013-08-11 02:38:00,64.1,62.6,30.01,WSW,246,2.0,6.0,95,0.02,,,0.12,VWS V12.08,2013-08-11 07:38:00,
2013-08-11 02:43:00,64.0,62.5,30.02,SW,227,7.0,7.0,95,0.02,,,0.12,VWS V12.08,2013-08-11 07:43:00,
2013-08-11 02:48:00,64.0,62.5,30.03,SW,232,6.0,8.0,95,0.02,,,0.12,VWS V12.08,2013-08-11 07:48:00,
2013-08-11 02:53:00,64.1,62.3,30.03,West,273,2.0,8.0,94,0.03,,,0.13,VWS V12.08,2013-08-11 07:53:00,
2013-08-11 02:58:00,64.1,62.3,30.04,WNW,288,3.0,10.0,94,0.03,,,0.13,VWS V12.08,2013-08-11 07:58:00,
2013-08-11 03:03:00,64.0,62.2,30.03,West,271,2.0,4.0,94,0.01,,,0.13,VWS V12.08,2013-08-11 08:03:00,
2013-08-11 03:08:00,64.0,62.5,30.03,SW,227,3.0,5.0,95,0.01,,,0.13,VWS V12.08,2013-08-11 08:08:00,
2013-08-11 03:14:00,63.9,62.4,30.04,West,275,2.0,5.0,95,0.01,,,0.13,VWS V12.08,2013-08-11 08:14:00,
2013-08-11 03:19:00,63.9,62.4,30.04,WSW,237,2.0,5.0,95,0.01,,,0.13,VWS V12.08,2013-08-11 08:19:00,
2013-08-11 03:25:00,63.9,62.4,30.04,WSW,249,1.0,5.0,95,0.01,,,0.13,VWS V12.08,2013-08-11 08:25:00,
2013-08-11 03:30:00,63.8,62.3,30.04,SW,219,0.0,5.0,95,0.01,,,0.13,VWS V12.08,2013-08-11 08:30:00,
2013-08-11 03:35:00,63.7,62.2,30.03,WSW,245,4.0,5.0,95,0.01,,,0.13,VWS V12.08,2013-08-11 08:35:00,
2013-08-11 03:40:00,63.5,61.8,30.02,SW,226,2.0,7.0,94,0.01,,,0.14,VWS V12.08,2013-08-11 08:40:00,
2013-08-11 03:45:00,63.4,61.7,30.02,SW,218,3.0,7.0,94,0.02,,,0.14,VWS V12.08,2013-08-11 08:45:00,
2013-08-11 03:51:00,63.3,61.5,30.05,West,281,9.0,12.0,94,0.04,,,0.16,VWS V12.08,2013-08-11 08:51:00,
2013-08-11 03:56:00,63.2,61.5,30.03,SW,225,1.0,12.0,94,0.08,,,0.20,VWS V12.08,2013-08-11 08:56:00,
2013-08-11 04:01:00,63.0,61.2,30.03,SSW,210,2.0,2.0,94,0.15,,,0.28,VWS V12.08,2013-08-11 09:01:00,
2013-08-11 04:07:00,62.7,61.2,30.03,SSW,192,4.0,4.0,95,0.19,,,0.32,VWS V12.08,2013-08-11 09:07:00,
2013-08-11 04:12:00,62.5,61.0,30.04,WSW,246,5.0,5.0,95,0.20,,,0.33,VWS V12.08,2013-08-11 09:12:00,
2013-08-11 04:17:00,62.4,61.0,30.02,SSW,194,2.0,5.0,95,0.20,,,0.33,VWS V12.08,2013-08-11 09:17:00,
2013-08-11 04:22:00,62.4,61.2,30.01,ESE,123,5.0,6.0,96,0.20,,,0.33,VWS V12.08,2013-08-11 09:22:00,
2013-08-11 04:27:00,62.2,61.0,30.00,ENE,61,3.0,10.0,96,0.20,,,0.33,VWS V12.08,2013-08-11 09:27:00,
2013-08-11 04:32:00,62.3,61.2,30.00,SSE,161,0.0,3.0,96,0.20,,,0.33,VWS V12.08,2013-08-11 09:32:00,
2013-08-11 04:38:00,62.3,61.4,30.00,SE,140,3.0,6.0,97,0.20,,,0.33,VWS V12.08,2013-08-11 09:38:00,
2013-08-11 04:43:00,62.3,61.4,30.00,SSW,200,1.0,6.0,97,0.20,,,0.33,VWS V12.08,2013-08-11 09:43:00,
2013-08-11 04:48:00,62.3,61.4,30.01,SSE,154,4.0,7.0,97,0.20,,,0.33,VWS V12.08,2013-08-11 09:48:00,
2013-08-11 04:53:00,62.2,61.3,30.00,SSW,205,5.0,9.0,97,0.20,,,0.33,VWS V12.08,2013-08-11 09:53:00,
2013-08-11 04:58:00,62.2,61.3,30.00,SE,129,3.0,9.0,97,0.20,,,0.33,VWS V12.08,2013-08-11 09:58:00,
2013-08-11 05:04:00,62.2,61.3,30.00,ESE,121,4.0,7.0,97,0.06,,,0.33,VWS V12.08,2013-08-11 10:04:00,
2013-08-11 05:09:00,62.3,61.4,30.00,ESE,121,4.0,7.0,97,0.06,,,0.33,VWS V12.08,2013-08-11 10:09:00,
2013-08-11 05:14:00,62.4,61.5,30.00,South,179,2.0,9.0,97,0.07,,,0.34,VWS V12.08,2013-08-11 10:14:00,
2013-08-11 05:20:00,62.4,61.5,30.00,South,176,4.0,9.0,97,0.07,,,0.34,VWS V12.08,2013-08-11 10:20:00,
2013-08-11 05:25:00,62.4,61.5,30.00,SE,136,4.0,9.0,97,0.07,,,0.34,VWS V12.08,2013-08-11 10:25:00,
2013-08-11 05:30:00,62.5,61.6,29.99,SSE,157,6.0,9.0,97,0.07,,,0.34,VWS V12.08,2013-08-11 10:30:00,
2013-08-11 05:35:00,62.5,61.6,29.98,SE,128,3.0,12.0,97,0.01,,,0.34,VWS V12.08,2013-08-11 10:35:00,
2013-08-11 05:40:00,62.5,61.6,29.98,SSE,163,2.0,12.0,97,0.01,,,0.34,VWS V12.08,2013-08-11 10:40:00,
2013-08-11 05:45:00,62.5,61.6,29.98,SSE,157,4.0,12.0,97,0.01,,,0.34,VWS V12.08,2013-08-11 10:45:00,
2013-08-11 05:50:00,62.6,61.7,29.98,East,98,5.0,12.0,97,0.01,,,0.34,VWS V12.08,2013-08-11 10:50:00,
2013-08-11 05:55:00,62.6,61.7,29.98,SSE,149,3.0,12.0,97,0.01,,,0.34,VWS V12.08,2013-08-11 10:55:00,
2013-08-11 06:00:00,62.5,61.6,29.98,SE,135,4.0,12.0,97,0.01,,,0.34,VWS V12.08,2013-08-11 11:00:00,
2013-08-11 06:06:00,62.6,61.7,29.98,ESE,112,3.0,6.0,97,0.01,,,0.34,VWS V12.08,2013-08-11 11:06:00,
2013-08-11 06:11:00,62.6,61.7,29.98,ESE,105,3.0,6.0,97,0.01,,,0.34,VWS V12.08,2013-08-11 11:11:00,
2013-08-11 06:16:00,62.6,61.7,29.99,SE,127,4.0,6.0,97,0.02,,,0.35,VWS V12.08,2013-08-11 11:16:00,
2013-08-11 06:21:00,62.6,61.7,29.99,SSE,155,3.0,6.0,97,0.02,,,0.35,VWS V12.08,2013-08-11 11:21:00,
2013-08-11 06:26:00,62.6,61.7,29.99,SE,142,1.0,6.0,97,0.02,,,0.35,VWS V12.08,2013-08-11 11:26:00,
2013-08-11 06:31:00,62.7,61.8,29.99,SE,141,1.0,3.0,97,0.02,,,0.35,VWS V12.08,2013-08-11 11:31:00,
2013-08-11 06:37:00,62.7,61.8,29.99,ENE,75,2.0,6.0,97,0.01,,,0.35,VWS V12.08,2013-08-11 11:37:00,
2013-08-11 06:42:00,62.7,61.8,29.99,ENE,58,3.0,6.0,97,0.01,,,0.35,VWS V12.08,2013-08-11 11:42:00,
2013-08-11 06:47:00,62.7,61.8,30.00,ENE,64,6.0,6.0,97,0.01,,,0.35,VWS V12.08,2013-08-11 11:47:00,
2013-08-11 06:52:00,62.7,61.8,29.99,ENE,65,5.0,8.0,97,0.01,,,0.35,VWS V12.08,2013-08-11 11:52:00,
2013-08-11 06:57:00,62.7,61.8,30.00,NNE,26,10.0,12.0,97,0.01,,,0.35,VWS V12.08,2013-08-11 11:57:00,
2013-08-11 07:02:00,62.8,61.9,30.01,ENE,66,14.0,17.0,97,0.01,,,0.35,VWS V12.08,2013-08-11 12:02:00,
2013-08-11 07:07:00,62.7,61.8,30.01,NNE,29,16.0,17.0,97,0.01,,,0.35,VWS V12.08,2013-08-11 12:07:00,
2013-08-11 07:12:00,62.9,62.0,30.00,SE,137,9.0,18.0,97,0.04,,,0.39,VWS V12.08,2013-08-11 12:12:00,
2013-08-11 07:18:00,63.0,62.1,30.00,SSE,163,1.0,18.0,97,0.11,,,0.45,VWS V12.08,2013-08-11 12:18:00,
2013-08-11 07:23:00,63.0,62.1,30.00,ENE,78,3.0,18.0,97,0.23,,,0.57,VWS V12.08,2013-08-11 12:23:00,
2013-08-11 07:28:00,63.1,62.2,30.01,NE,48,2.0,18.0,97,0.28,,,0.62,VWS V12.08,2013-08-11 12:28:00,
2013-08-11 07:33:00,63.2,62.3,30.02,NNW,337,2.0,2.0,97,0.28,,,0.63,VWS V12.08,2013-08-11 12:33:00,
2013-08-11 07:38:00,62.9,62.0,30.02,ENE,61,6.0,7.0,97,0.34,,,0.69,VWS V12.08,2013-08-11 12:38:00,
2013-08-11 07:44:00,62.9,62.0,30.01,ESE,110,3.0,7.0,97,0.35,,,0.70,VWS V12.08,2013-08-11 12:44:00,
2013-08-11 07:49:00,62.8,61.9,30.00,East,93,2.0,7.0,97,0.35,,,0.70,VWS V12.08,2013-08-11 12:49:00,
2013-08-11 07:54:00,62.8,61.9,30.01,SE,136,1.0,7.0,97,0.35,,,0.70,VWS V12.08,2013-08-11 12:54:00,
2013-08-11 07:59:00,62.8,61.9,30.01,ENE,76,2.0,7.0,97,0.35,,,0.70,VWS V12.08,2013-08-11 12:59:00,
2013-08-11 08:05:00,62.8,61.9,30.01,East,80,5.0,5.0,97,0.35,,,0.70,VWS V12.08,2013-08-11 13:05:00,
2013-08-11 08:10:00,62.7,61.8,30.00,ESE,104,3.0,10.0,97,0.35,,,0.70,VWS V12.08,2013-08-11 13:10:00,
2013-08-11 08:15:00,62.6,61.7,30.00,East,101,3.0,11.0,97,0.35,,,0.70,VWS V12.08,2013-08-11 13:15:00,
2013-08-11 08:20:00,62.5,61.6,30.01,ENE,66,8.0,11.0,97,0.35,,,0.70,VWS V12.08,2013-08-11 13:20:00,
2013-08-11 08:25:00,62.5,61.6,30.01,ENE,67,6.0,11.0,97,0.35,,,0.70,VWS V12.08,2013-08-11 13:25:00,
2013-08-11 08:30:00,62.7,61.8,30.01,ENE,58,2.0,11.0,97,0.35,,,0.70,VWS V12.08,2013-08-11 13:30:00,
2013-08-11 08:35:00,62.8,62.2,30.00,East,86,8.0,9.0,98,0.08,,,0.70,VWS V12.08,2013-08-11 13:35:00,
2013-08-11 08:41:00,62.9,62.0,30.00,ESE,108,10.0,11.0,97,0.08,,,0.70,VWS V12.08,2013-08-11 13:41:00,
2013-08-11 08:46:00,63.1,62.2,30.00,ENE,78,4.0,12.0,97,0.08,,,0.70,VWS V12.08,2013-08-11 13:46:00,
2013-08-11 08:51:00,63.3,62.4,30.00,ESE,104,9.0,12.0,97,0.08,,,0.70,VWS V12.08,2013-08-11 13:51:00,
2013-08-11 08:56:00,63.4,62.5,30.01,East,85,2.0,12.0,97,0.08,,,0.70,VWS V12.08,2013-08-11 13:56:00,
2013-08-11 09:02:00,63.5,62.6,30.01,NNW,344,4.0,10.0,97,0.00,,,0.70,VWS V12.08,2013-08-11 14:02:00,
2013-08-11 09:07:00,63.6,62.7,30.00,ESE,120,4.0,12.0,97,0.00,,,0.70,VWS V12.08,2013-08-11 14:07:00,
2013-08-11 09:12:00,63.7,62.8,30.00,ESE,121,1.0,12.0,97,0.00,,,0.70,VWS V12.08,2013-08-11 14:12:00,
2013-08-11 09:17:00,63.9,63.0,30.00,ESE,120,4.0,12.0,97,0.00,,,0.70,VWS V12.08,2013-08-11 14:17:00,
2013-08-11 09:23:00,64.1,63.2,30.00,SE,140,2.0,12.0,97,0.00,,,0.70,VWS V12.08,2013-08-11 14:23:00,
2013-08-11 09:28:00,64.5,63.6,30.00,ESE,121,3.0,12.0,97,0.00,,,0.70,VWS V12.08,2013-08-11 14:28:00,
2013-08-11 09:33:00,64.6,63.4,30.00,SE,130,5.0,9.0,96,0.00,,,0.70,VWS V12.08,2013-08-11 14:33:00,
2013-08-11 09:38:00,64.7,63.5,30.00,SE,140,4.0,10.0,96,0.00,,,0.70,VWS V12.08,2013-08-11 14:38:00,
2013-08-11 09:43:00,65.0,63.8,30.00,SE,130,4.0,14.0,96,0.00,,,0.70,VWS V12.08,2013-08-11 14:43:00,
2013-08-11 09:48:00,65.3,64.1,30.00,SE,135,6.0,14.0,96,0.00,,,0.70,VWS V12.08,2013-08-11 14:48:00,
2013-08-11 09:53:00,65.6,64.1,30.00,ESE,121,3.0,14.0,95,0.00,,,0.70,VWS V12.08,2013-08-11 14:53:00,
2013-08-11 09:59:00,65.9,64.4,30.00,SE,132,3.0,14.0,95,0.00,,,0.70,VWS V12.08,2013-08-11 14:59:00,
2013-08-11 10:04:00,66.0,64.2,30.00,SSE,156,6.0,9.0,94,0.00,,,0.70,VWS V12.08,2013-08-11 15:04:00,
2013-08-11 10:09:00,66.2,64.4,30.00,ESE,115,7.0,12.0,94,0.00,,,0.70,VWS V12.08,2013-08-11 15:09:00,
2013-08-11 10:14:00,66.4,64.3,30.00,ESE,108,10.0,14.0,93,0.00,,,0.70,VWS V12.08,2013-08-11 15:14:00,
2013-08-11 10:19:00,67.0,64.9,30.00,SE,130,7.0,14.0,93,0.00,,,0.70,VWS V12.08,2013-08-11 15:19:00,
2013-08-11 10:24:00,67.2,64.8,30.00,SE,136,9.0,15.0,92,0.00,,,0.70,VWS V12.08,2013-08-11 15:24:00,
2013-08-11 10:30:00,67.7,65.0,30.00,SE,127,9.0,15.0,91,0.00,,,0.70,VWS V12.08,2013-08-11 15:30:00,
2013-08-11 10:35:00,68.3,65.6,30.00,SSW,205,12.0,12.0,91,0.00,,,0.70,VWS V12.08,2013-08-11 15:35:00,
2013-08-11 10:40:00,68.6,64.9,30.00,SE,141,4.0,12.0,88,0.00,,,0.70,VWS V12.08,2013-08-11 15:40:00,
2013-08-11 10:45:00,69.2,65.5,30.00,SSW,205,2.0,12.0,88,0.00,,,0.70,VWS V12.08,2013-08-11 15:45:00,
2013-08-11 10:51:00,69.9,66.2,30.00,SE,144,6.0,12.0,88,0.00,,,0.70,VWS V12.08,2013-08-11 15:51:00,
2013-08-11 10:56:00,69.9,65.2,30.00,SE,136,6.0,14.0,85,0.00,,,0.70,VWS V12.08,2013-08-11 15:56:00,
2013-08-11 11:01:00,69.8,65.1,30.00,SSE,148,5.0,7.0,85,0.00,,,0.70,VWS V12.08,2013-08-11 16:01:00,
2013-08-11 11:06:00,70.1,65.7,30.00,SE,145,5.0,9.0,86,0.00,,,0.70,VWS V12.08,2013-08-11 16:06:00,
2013-08-11 11:12:00,70.8,66.1,30.00,SSW,207,2.0,9.0,85,0.00,,,0.70,VWS V12.08,2013-08-11 16:12:00,
2013-08-11 11:17:00,71.2,66.1,30.00,SSE,152,6.0,9.0,84,0.00,,,0.70,VWS V12.08,2013-08-11 16:17:00,
2013-08-11 11:22:00,71.2,66.1,29.99,South,188,3.0,9.0,84,0.00,,,0.70,VWS V12.08,2013-08-11 16:22:00,
2013-08-11 11:27:00,71.4,66.7,29.99,SE,126,4.0,9.0,85,0.00,,,0.70,VWS V12.08,2013-08-11 16:27:00,
2013-08-11 11:32:00,71.3,65.9,29.99,ESE,119,1.0,7.0,83,0.00,,,0.70,VWS V12.08,2013-08-11 16:32:00,
2013-08-11 11:37:00,71.2,66.1,29.99,SSE,162,0.0,10.0,84,0.00,,,0.70,VWS V12.08,2013-08-11 16:37:00,
2013-08-11 11:42:00,71.5,66.4,29.99,South,169,1.0,10.0,84,0.00,,,0.70,VWS V12.08,2013-08-11 16:42:00,
2013-08-11 11:47:00,72.0,66.6,29.99,SSW,205,3.0,10.0,83,0.00,,,0.70,VWS V12.08,2013-08-11 16:47:00,
2013-08-11 11:52:00,72.4,66.2,29.99,SSW,198,3.0,10.0,81,0.00,,,0.70,VWS V12.08,2013-08-11 16:52:00,
2013-08-11 11:58:00,72.6,66.1,29.99,WSW,239,1.0,10.0,80,0.00,,,0.70,VWS V12.08,2013-08-11 16:58:00,
2013-08-11 12:03:00,72.9,66.0,29.99,SW,234,1.0,2.0,79,0.00,,,0.70,VWS V12.08,2013-08-11 17:03:00,
2013-08-11 12:08:00,72.9,65.7,29.99,West,279,1.0,4.0,78,0.00,,,0.70,VWS V12.08,2013-08-11 17:08:00,
2013-08-11 12:13:00,73.3,66.0,29.99,East,101,0.0,4.0,78,0.00,,,0.70,VWS V12.08,2013-08-11 17:13:00,
2013-08-11 12:18:00,73.7,65.7,29.99,West,281,1.0,4.0,76,0.00,,,0.70,VWS V12.08,2013-08-11 17:18:00,
2013-08-11 12:23:00,73.7,66.4,29.99,West,281,2.0,4.0,78,0.00,,,0.70,VWS V12.08,2013-08-11 17:23:00,
2013-08-11 12:28:00,73.9,66.2,29.99,NNW,340,3.0,5.0,77,0.00,,,0.70,VWS V12.08,2013-08-11 17:28:00,
2013-08-11 12:34:00,73.5,65.9,29.99,WNW,284,0.0,3.0,77,0.00,,,0.70,VWS V12.08,2013-08-11 17:34:00,
2013-08-11 12:39:00,73.7,66.1,29.99,NNE,17,2.0,4.0,77,0.00,,,0.70,VWS V12.08,2013-08-11 17:39:00,
2013-08-11 12:44:00,74.0,66.3,29.99,NW,317,2.0,4.0,77,0.00,,,0.70,VWS V12.08,2013-08-11 17:44:00,
2013-08-11 12:49:00,73.7,65.7,29.99,NW,317,0.0,4.0,76,0.00,,,0.70,VWS V12.08,2013-08-11 17:49:00,
2013-08-11 12:54:00,73.5,65.9,29.99,NE,54,1.0,4.0,77,0.00,,,0.70,VWS V12.08,2013-08-11 17:54:00,
2013-08-11 12:59:00,73.5,65.9,29.99,ENE,61,3.0,5.0,77,0.00,,,0.70,VWS V12.08,2013-08-11 17:59:00,
2013-08-11 13:04:00,73.2,65.6,29.99,NNE,27,4.0,5.0,77,0.00,,,0.70,VWS V12.08,2013-08-11 18:04:00,
2013-08-11 13:09:00,72.9,65.7,29.99,NE,38,3.0,7.0,78,0.00,,,0.70,VWS V12.08,2013-08-11 18:09:00,
2013-08-11 13:14:00,73.1,65.8,29.99,NE,42,5.0,7.0,78,0.00,,,0.70,VWS V12.08,2013-08-11 18:14:00,
2013-08-11 13:19:00,73.1,65.5,29.99,ENE,66,2.0,7.0,77,0.00,,,0.70,VWS V12.08,2013-08-11 18:19:00,
2013-08-11 13:24:00,73.3,65.7,29.99,NNE,26,5.0,7.0,77,0.00,,,0.70,VWS V12.08,2013-08-11 18:24:00,
2013-08-11 13:30:00,73.4,65.8,29.99,NE,43,1.0,7.0,77,0.00,,,0.70,VWS V12.08,2013-08-11 18:30:00,
2013-08-11 13:35:00,73.7,66.1,29.99,ENE,76,3.0,7.0,77,0.00,,,0.70,VWS V12.08,2013-08-11 18:35:00,
2013-08-11 13:40:00,73.6,65.9,29.99,NNW,336,3.0,8.0,77,0.00,,,0.70,VWS V12.08,2013-08-11 18:40:00,
2013-08-11 13:45:00,73.7,66.1,29.99,NE,43,6.0,8.0,77,0.00,,,0.70,VWS V12.08,2013-08-11 18:45:00,
2013-08-11 13:50:00,73.4,65.8,29.99,WNW,303,1.0,8.0,77,0.00,,,0.70,VWS V12.08,2013-08-11 18:50:00,
2013-08-11 13:55:00,73.8,65.8,29.99,WNW,293,2.0,8.0,76,0.00,,,0.70,VWS V12.08,2013-08-11 18:55:00,
2013-08-11 14:00:00,74.3,65.9,29.99,NNW,335,4.0,8.0,75,0.00,,,0.70,VWS V12.08,2013-08-11 19:00:00,
2013-08-11 14:06:00,74.4,66.0,29.99,NW,314,2.0,5.0,75,0.00,,,0.70,VWS V12.08,2013-08-11 19:06:00,
2013-08-11 14:11:00,74.9,66.8,29.99,NE,38,6.0,6.0,76,0.00,,,0.70,VWS V12.08,2013-08-11 19:11:00,
2013-08-11 14:16:00,74.8,66.0,29.99,WNW,291,3.0,10.0,74,0.00,,,0.70,VWS V12.08,2013-08-11 19:16:00,
2013-08-11 14:22:00,74.9,66.1,29.99,NNW,341,7.0,10.0,74,0.00,,,0.70,VWS V12.08,2013-08-11 19:22:00,
2013-08-11 14:27:00,74.9,66.1,29.99,NW,309,1.0,12.0,74,0.00,,,0.70,VWS V12.08,2013-08-11 19:27:00,
2013-08-11 14:32:00,75.0,65.8,29.99,NNE,26,3.0,9.0,73,0.00,,,0.70,VWS V12.08,2013-08-11 19:32:00,
2013-08-11 14:37:00,75.1,66.2,29.99,NE,44,5.0,9.0,74,0.00,,,0.70,VWS V12.08,2013-08-11 19:37:00,
2013-08-11 14:42:00,74.9,66.1,29.99,WNW,303,3.0,11.0,74,0.00,,,0.70,VWS V12.08,2013-08-11 19:42:00,
2013-08-11 14:47:00,74.6,65.4,29.99,NE,49,3.0,12.0,73,0.00,,,0.70,VWS V12.08,2013-08-11 19:47:00,
2013-08-11 14:52:00,74.7,66.3,29.99,NE,53,9.0,12.0,75,0.00,,,0.70,VWS V12.08,2013-08-11 19:52:00,
2013-08-11 14:58:00,74.4,66.0,29.99,ENE,73,7.0,12.0,75,0.00,,,0.70,VWS V12.08,2013-08-11 19:58:00,
2013-08-11 15:03:00,74.2,65.8,29.99,NNE,28,4.0,9.0,75,0.00,,,0.70,VWS V12.08,2013-08-11 20:03:00,
2013-08-11 15:08:00,74.4,65.6,29.99,ENE,64,5.0,9.0,74,0.00,,,0.70,VWS V12.08,2013-08-11 20:08:00,
2013-08-11 15:13:00,74.6,65.8,29.99,ENE,58,3.0,10.0,74,0.00,,,0.70,VWS V12.08,2013-08-11 20:13:00,
2013-08-11 15:18:00,75.2,66.0,29.99,NE,48,5.0,11.0,73,0.00,,,0.70,VWS V12.08,2013-08-11 20:18:00,
2013-08-11 15:24:00,75.0,65.4,29.99,NE,47,8.0,11.0,72,0.00,,,0.70,VWS V12.08,2013-08-11 20:24:00,
2013-08-11 15:29:00,75.3,65.7,29.99,NE,44,8.0,11.0,72,0.00,,,0.70,VWS V12.08,2013-08-11 20:29:00,
2013-08-11 15:34:00,75.4,65.8,29.99,NNE,31,8.0,13.0,72,0.00,,,0.70,VWS V12.08,2013-08-11 20:34:00,
2013-08-11 15:39:00,75.4,65.8,29.99,NNE,30,7.0,14.0,72,0.00,,,0.70,VWS V12.08,2013-08-11 20:39:00,
2013-08-11 15:44:00,75.6,65.9,29.99,ENE,74,3.0,14.0,72,0.00,,,0.70,VWS V12.08,2013-08-11 20:44:00,
2013-08-11 15:49:00,75.5,66.2,29.99,ENE,57,10.0,14.0,73,0.00,,,0.70,VWS V12.08,2013-08-11 20:49:00,
2013-08-11 15:54:00,74.8,66.0,29.99,NE,38,6.0,15.0,74,0.00,,,0.70,VWS V12.08,2013-08-11 20:54:00,
2013-08-11 15:59:00,75.1,67.0,29.99,NE,43,15.0,15.0,76,0.00,,,0.70,VWS V12.08,2013-08-11 20:59:00,
2013-08-11 16:05:00,74.5,66.4,29.99,ENE,62,11.0,18.0,76,0.00,,,0.70,VWS V12.08,2013-08-11 21:05:00,
2013-08-11 16:10:00,74.9,66.8,29.99,NE,46,8.0,18.0,76,0.00,,,0.70,VWS V12.08,2013-08-11 21:10:00,
2013-08-11 16:15:00,75.0,66.9,29.99,NE,34,9.0,18.0,76,0.00,,,0.70,VWS V12.08,2013-08-11 21:15:00,
2013-08-11 16:20:00,74.7,66.6,29.99,NE,38,10.0,18.0,76,0.00,,,0.70,VWS V12.08,2013-08-11 21:20:00,
2013-08-11 16:25:00,74.4,66.0,29.99,NE,44,9.0,18.0,75,0.00,,,0.70,VWS V12.08,2013-08-11 21:25:00,
2013-08-11 16:30:00,74.5,66.1,29.99,NNE,32,5.0,18.0,75,0.00,,,0.70,VWS V12.08,2013-08-11 21:30:00,
2013-08-11 16:35:00,74.8,66.3,29.99,NNE,20,6.0,10.0,75,0.00,,,0.70,VWS V12.08,2013-08-11 21:35:00,
2013-08-11 16:41:00,75.2,66.0,29.99,NNE,22,7.0,12.0,73,0.00,,,0.70,VWS V12.08,2013-08-11 21:41:00,
2013-08-11 16:46:00,75.4,65.8,29.99,NE,51,7.0,12.0,72,0.00,,,0.70,VWS V12.08,2013-08-11 21:46:00,
2013-08-11 16:51:00,75.4,65.8,29.99,NE,35,4.0,12.0,72,0.00,,,0.70,VWS V12.08,2013-08-11 21:51:00,
2013-08-11 16:56:00,75.4,65.3,29.99,ENE,57,5.0,12.0,71,0.00,,,0.70,VWS V12.08,2013-08-11 21:56:00,
2013-08-11 17:01:00,75.7,64.8,29.99,ENE,57,5.0,5.0,69,0.00,,,0.70,VWS V12.08,2013-08-11 22:01:00,
2013-08-11 17:06:00,75.7,65.2,29.99,East,96,5.0,10.0,70,0.00,,,0.70,VWS V12.08,2013-08-11 22:06:00,
2013-08-11 17:11:00,76.1,65.6,29.98,ENE,77,0.0,10.0,70,0.00,,,0.70,VWS V12.08,2013-08-11 22:11:00,
2013-08-11 17:16:00,76.7,65.8,29.98,NE,46,4.0,10.0,69,0.00,,,0.70,VWS V12.08,2013-08-11 22:16:00,
2013-08-11 17:22:00,76.5,65.6,29.98,NNW,346,1.0,10.0,69,0.00,,,0.70,VWS V12.08,2013-08-11 22:22:00,
2013-08-11 17:27:00,76.8,65.9,29.98,NNE,23,4.0,10.0,69,0.00,,,0.70,VWS V12.08,2013-08-11 22:27:00,
2013-08-11 17:32:00,76.6,66.1,29.98,ENE,61,3.0,5.0,70,0.00,,,0.70,VWS V12.08,2013-08-11 22:32:00,
2013-08-11 17:37:00,76.5,65.2,29.98,NE,42,2.0,11.0,68,0.00,,,0.70,VWS V12.08,2013-08-11 22:37:00,
2013-08-11 17:42:00,76.9,64.7,29.98,ENE,57,3.0,11.0,66,0.00,,,0.70,VWS V12.08,2013-08-11 22:42:00,
2013-08-11 17:47:00,76.6,64.8,29.97,NW,304,1.0,11.0,67,0.00,,,0.70,VWS V12.08,2013-08-11 22:47:00,
2013-08-11 17:52:00,76.7,64.9,29.97,ENE,61,12.0,12.0,67,0.00,,,0.70,VWS V12.08,2013-08-11 22:52:00,
2013-08-11 17:57:00,76.1,64.4,29.97,ESE,119,3.0,13.0,67,0.00,,,0.70,VWS V12.08,2013-08-11 22:57:00,
2013-08-11 18:02:00,76.2,64.4,29.97,ENE,70,2.0,5.0,67,0.00,,,0.70,VWS V12.08,2013-08-11 23:02:00,
2013-08-11 18:07:00,76.2,64.4,29.97,ENE,77,4.0,10.0,67,0.00,,,0.70,VWS V12.08,2013-08-11 23:07:00,
2013-08-11 18:12:00,76.3,65.4,29.97,NNE,25,5.0,10.0,69,0.00,,,0.70,VWS V12.08,2013-08-11 23:12:00,
2013-08-11 18:18:00,76.3,65.4,29.97,East,84,3.0,10.0,69,0.00,,,0.70,VWS V12.08,2013-08-11 23:18:00,
2013-08-11 18:23:00,76.8,65.0,29.97,ENE,70,3.0,10.0,67,0.00,,,0.70,VWS V12.08,2013-08-11 23:23:00,
2013-08-11 18:28:00,76.7,64.9,29.97,NE,50,4.0,10.0,67,0.00,,,0.70,VWS V12.08,2013-08-11 23:28:00,
2013-08-11 18:33:00,76.6,64.8,29.97,NE,39,4.0,7.0,67,0.00,,,0.70,VWS V12.08,2013-08-11 23:33:00,
2013-08-11 18:38:00,76.1,64.8,29.97,ENE,75,5.0,7.0,68,0.00,,,0.70,VWS V12.08,2013-08-11 23:38:00,
2013-08-11 18:44:00,76.0,65.1,29.97,ENE,67,7.0,7.0,69,0.00,,,0.70,VWS V12.08,2013-08-11 23:44:00,
2013-08-11 18:49:00,75.9,65.4,29.96,NNE,28,1.0,7.0,70,0.00,,,0.70,VWS V12.08,2013-08-11 23:49:00,
2013-08-11 18:54:00,75.7,65.2,29.97,ENE,67,3.0,7.0,70,0.00,,,0.70,VWS V12.08,2013-08-11 23:54:00,
2013-08-11 18:59:00,75.4,65.8,29.96,ENE,63,6.0,7.0,72,0.00,,,0.70,VWS V12.08,2013-08-11 23:59:00,
2013-08-11 19:04:00,75.2,66.0,29.96,NE,51,2.0,6.0,73,0.00,,,0.70,VWS V12.08,2013-08-12 00:04:00,
2013-08-11 19:09:00,75.3,65.7,29.96,NE,47,1.0,6.0,72,0.00,,,0.70,VWS V12.08,2013-08-12 00:09:00,
2013-08-11 19:15:00,75.4,65.8,29.96,ENE,58,3.0,6.0,72,0.00,,,0.70,VWS V12.08,2013-08-12 00:15:00,
2013-08-11 19:20:00,75.3,66.1,29.96,NE,43,3.0,6.0,73,0.00,,,0.70,VWS V12.08,2013-08-12 00:20:00,
2013-08-11 19:25:00,75.3,66.1,29.96,ENE,58,2.0,6.0,73,0.00,,,0.70,VWS V12.08,2013-08-12 00:25:00,
2013-08-11 19:30:00,75.1,65.9,29.96,ENE,67,3.0,6.0,73,0.00,,,0.70,VWS V12.08,2013-08-12 00:30:00,
2013-08-11 19:35:00,74.9,66.1,29.96,ENE,69,3.0,5.0,74,0.00,,,0.70,VWS V12.08,2013-08-12 00:35:00,
2013-08-11 19:40:00,75.0,66.2,29.97,ENE,76,1.0,5.0,74,0.00,,,0.70,VWS V12.08,2013-08-12 00:40:00,
2013-08-11 19:45:00,75.1,66.2,29.96,East,84,1.0,5.0,74,0.00,,,0.70,VWS V12.08,2013-08-12 00:45:00,
2013-08-11 19:51:00,75.1,66.6,29.97,NNE,32,2.0,5.0,75,0.00,,,0.70,VWS V12.08,2013-08-12 00:51:00,
2013-08-11 19:56:00,74.9,66.4,29.97,NE,50,4.0,6.0,75,0.00,,,0.70,VWS V12.08,2013-08-12 00:56:00,
2013-08-11 20:01:00,74.7,66.6,29.97,ENE,66,3.0,6.0,76,0.00,,,0.70,VWS V12.08,2013-08-12 01:01:00,
2013-08-11 20:06:00,74.4,66.3,29.97,ENE,64,5.0,5.0,76,0.00,,,0.70,VWS V12.08,2013-08-12 01:06:00,
2013-08-11 20:11:00,74.0,66.3,29.97,ENE,66,4.0,5.0,77,0.00,,,0.70,VWS V12.08,2013-08-12 01:11:00,
2013-08-11 20:16:00,73.7,66.4,29.97,ENE,77,2.0,5.0,78,0.00,,,0.70,VWS V12.08,2013-08-12 01:16:00,
2013-08-11 20:21:00,73.6,66.3,29.98,NE,38,5.0,5.0,78,0.00,,,0.70,VWS V12.08,2013-08-12 01:21:00,
2013-08-11 20:27:00,73.5,66.2,29.97,NE,34,2.0,5.0,78,0.00,,,0.70,VWS V12.08,2013-08-12 01:27:00,
2013-08-11 20:32:00,73.3,66.0,29.97,NE,41,4.0,5.0,78,0.00,,,0.70,VWS V12.08,2013-08-12 01:32:00,
2013-08-11 20:37:00,73.1,66.2,29.97,NE,39,0.0,5.0,79,0.00,,,0.70,VWS V12.08,2013-08-12 01:37:00,
2013-08-11 20:42:00,72.9,66.0,29.98,NE,41,2.0,6.0,79,0.00,,,0.70,VWS V12.08,2013-08-12 01:42:00,
2013-08-11 20:48:00,72.7,65.8,29.98,NNE,28,2.0,6.0,79,0.00,,,0.70,VWS V12.08,2013-08-12 01:48:00,
2013-08-11 20:53:00,72.6,66.1,29.98,ENE,61,0.0,6.0,80,0.00,,,0.70,VWS V12.08,2013-08-12 01:53:00,
2013-08-11 20:58:00,72.3,66.2,29.98,ENE,61,0.0,6.0,81,0.00,,,0.70,VWS V12.08,2013-08-12 01:58:00,
2013-08-11 21:03:00,72.1,65.9,29.98,NE,36,0.0,2.0,81,0.00,,,0.70,VWS V12.08,2013-08-12 02:03:00,
2013-08-11 21:08:00,71.8,66.0,29.98,NE,35,0.0,2.0,82,0.00,,,0.70,VWS V12.08,2013-08-12 02:08:00,
2013-08-11 21:13:00,71.6,65.8,29.98,NE,34,0.0,2.0,82,0.00,,,0.70,VWS V12.08,2013-08-12 02:13:00,
2013-08-11 21:18:00,71.5,66.1,29.98,NNE,31,0.0,2.0,83,0.00,,,0.70,VWS V12.08,2013-08-12 02:18:00,
2013-08-11 21:24:00,71.3,65.9,29.99,NNE,24,0.0,2.0,83,0.00,,,0.70,VWS V12.08,2013-08-12 02:24:00,
2013-08-11 21:29:00,71.0,65.9,29.99,NNE,25,0.0,2.0,84,0.00,,,0.70,VWS V12.08,2013-08-12 02:29:00,
2013-08-11 21:34:00,70.9,65.8,29.99,NNE,26,0.0,1.0,84,0.00,,,0.70,VWS V12.08,2013-08-12 02:34:00,
2013-08-11 21:39:00,70.7,66.0,29.99,NNE,26,0.0,1.0,85,0.00,,,0.70,VWS V12.08,2013-08-12 02:39:00,
2013-08-11 21:45:00,70.5,65.8,29.99,NNE,26,0.0,1.0,85,0.00,,,0.70,VWS V12.08,2013-08-12 02:45:00,
2013-08-11 21:50:00,70.1,65.7,29.99,NNE,25,0.0,1.0,86,0.00,,,0.70,VWS V12.08,2013-08-12 02:50:00,
2013-08-11 21:55:00,69.9,65.5,29.99,NNE,23,0.0,1.0,86,0.00,,,0.70,VWS V12.08,2013-08-12 02:55:00,
2013-08-11 22:00:00,69.7,65.7,29.99,NNE,22,0.0,1.0,87,0.00,,,0.70,VWS V12.08,2013-08-12 03:00:00,
2013-08-11 22:05:00,69.6,65.6,29.99,NNE,24,0.0,0.0,87,0.00,,,0.70,VWS V12.08,2013-08-12 03:05:00,
2013-08-11 22:10:00,69.5,65.5,29.99,NNE,24,0.0,0.0,87,0.00,,,0.70,VWS V12.08,2013-08-12 03:10:00,
2013-08-11 22:15:00,69.3,65.3,29.99,NNE,28,0.0,0.0,87,0.00,,,0.70,VWS V12.08,2013-08-12 03:15:00,
2013-08-11 22:20:00,69.1,65.4,29.99,NNE,30,0.0,1.0,88,0.00,,,0.70,VWS V12.08,2013-08-12 03:20:00,
2013-08-11 22:26:00,68.8,65.1,29.99,NNE,20,0.0,2.0,88,0.00,,,0.70,VWS V12.08,2013-08-12 03:26:00,
2013-08-11 22:31:00,68.5,65.1,29.99,NNE,20,1.0,2.0,89,0.00,,,0.70,VWS V12.08,2013-08-12 03:31:00,
2013-08-11 22:36:00,68.4,65.4,29.99,NNE,22,2.0,2.0,90,0.00,,,0.70,VWS V12.08,2013-08-12 03:36:00,
2013-08-11 22:41:00,68.3,65.3,29.99,NNE,23,1.0,2.0,90,0.00,,,0.70,VWS V12.08,2013-08-12 03:41:00,
2013-08-11 22:46:00,68.1,65.1,29.99,NNE,23,0.0,2.0,90,0.00,,,0.70,VWS V12.08,2013-08-12 03:46:00,
2013-08-11 22:51:00,68.0,65.0,29.99,NNE,23,0.0,2.0,90,0.00,,,0.70,VWS V12.08,2013-08-12 03:51:00,
2013-08-11 22:56:00,67.8,65.1,30.00,NNE,23,0.0,2.0,91,0.00,,,0.70,VWS V12.08,2013-08-12 03:56:00,
2013-08-11 23:01:00,67.8,65.1,29.99,NNE,23,0.0,2.0,91,0.00,,,0.70,VWS V12.08,2013-08-12 04:01:00,
2013-08-11 23:04:00,67.6,64.9,30.00,NNE,20,0.0,1.0,91,0.00,,,0.70,VWS V12.08,2013-08-12 04:04:00,
2013-08-11 23:09:00,67.5,65.1,30.00,NNW,338,1.0,3.0,92,0.00,,,0.70,VWS V12.08,2013-08-12 04:09:00,
2013-08-11 23:14:00,67.3,64.9,30.00,North,355,2.0,3.0,92,0.00,,,0.70,VWS V12.08,2013-08-12 04:14:00,
2013-08-11 23:19:00,67.2,64.8,30.00,NNE,14,2.0,3.0,92,0.00,,,0.70,VWS V12.08,2013-08-12 04:19:00,
2013-08-11 23:24:00,67.2,64.8,30.00,NNE,13,0.0,3.0,92,0.00,,,0.70,VWS V12.08,2013-08-12 04:24:00,
2013-08-11 23:29:00,67.1,64.7,30.00,NNE,13,0.0,3.0,92,0.00,,,0.70,VWS V12.08,2013-08-12 04:29:00,
2013-08-11 23:34:00,66.9,64.5,30.00,NNE,13,0.0,0.0,92,0.00,,,0.70,VWS V12.08,2013-08-12 04:34:00,
2013-08-11 23:39:00,66.8,64.4,30.00,NNE,13,0.0,0.0,92,0.00,,,0.70,VWS V12.08,2013-08-12 04:39:00,
2013-08-11 23:44:00,66.6,64.2,30.00,NNE,13,0.0,0.0,92,0.00,,,0.70,VWS V12.08,2013-08-12 04:44:00,
2013-08-11 23:49:00,66.4,64.0,30.01,NNE,13,0.0,1.0,92,0.00,,,0.70,VWS V12.08,2013-08-12 04:49:00,
2013-08-11 23:54:00,66.2,63.8,30.00,NNE,13,0.0,1.0,92,0.00,,,0.70,VWS V12.08,2013-08-12 04:54:00,
2013-08-11 23:59:00,66.1,63.7,30.01,ESE,104,1.0,1.0,92,0.00,,,0.70,VWS V12.08,2013-08-12 04:59:00,